Time,TemperatureC,DewpointC,PressurehPa,WindDirection,WindDirectionDegrees,WindSpeedKMH,WindSpeedGustKMH,Humidity,HourlyPrecipMM,Conditions,Clouds,dailyrainMM,SolarRadiationWatts/m^2,UVIndex,SoftwareType,DateUTC
2026-09-03 00:04:58,14.2,7,1005.0,West,272,4,11.1,62,0.0,,,0.0,0,0,n/a,2026-09-02T12:04:58Z
2026-09-03 00:09:56,14.2,7,1005.0,West,271,5,11.3,62,0.0,,,0.0,0,0,n/a,2026-09-02T12:09:56Z
2026-09-03 00:14:54,14.4,7,1005.0,West,281,9,22.5,61,0.0,,,0.0,0,0,n/a,2026-09-02T12:14:54Z
2026-09-03 00:19:58,15.2,7.1,1005.0,West,274,10.1,20.9,58.2,0.0,,,0.0,0,0,n/a,2026-09-02T12:19:58Z
2026-09-03 00:24:58,16,7,1005.0,West,273,10.4,19.3,55.3,0.0,,,0.0,0,0,n/a,2026-09-02T12:24:58Z
2026-09-03 00:29:59,16.7,7.1,1005.0,West,272,8.3,22.5,53.3,0.0,,,0.0,0,0,n/a,2026-09-02T12:29:59Z
2026-09-03 00:34:59,16.9,7,1005.1,West,277,7.4,18.5,52,0.0,,,0.0,0,0,n/a,2026-09-02T12:34:59Z
2026-09-03 00:39:55,17,7.1,1005.4,West,278,8.9,19.3,51.8,0.0,,,0.0,0,0,n/a,2026-09-02T12:39:55Z
2026-09-03 00:44:56,17.3,6.9,1005.5,West,277,11.8,19.3,50.5,0.0,,,0.0,0,0,n/a,2026-09-02T12:44:56Z
2026-09-03 00:49:55,17.4,6.9,1005.4,West,273,8.2,18.5,50,0.0,,,0.0,0,0,n/a,2026-09-02T12:49:55Z
2026-09-03 00:54:56,17.4,6.9,1005.4,West,277,7.8,14.8,50,0.0,,,0.0,0,0,n/a,2026-09-02T12:54:56Z
2026-09-03 00:59:55,17.3,6.8,1005.4,West,276,8.6,16.7,50,0.0,,,0.0,0,0,n/a,2026-09-02T12:59:55Z
2026-09-03 01:04:54,17.2,6.9,1005.4,West,273,7.2,16.7,50.4,0.0,,,0.0,0,0,n/a,2026-09-02T13:04:54Z
2026-09-03 01:09:56,17.1,6.9,1005.5,West,278,7.1,16.7,51,0.0,,,0.0,0,0,n/a,2026-09-02T13:09:56Z
2026-09-03 01:14:57,17,6.7,1005.6,West,272,5.6,14.8,51,0.0,,,0.0,0,0,n/a,2026-09-02T13:14:57Z
2026-09-03 01:19:58,16.9,6.6,1005.7,West,278,4.6,9.7,51,0.0,,,0.0,0,0,n/a,2026-09-02T13:19:58Z
2026-09-03 01:24:57,16.8,6.6,1005.7,West,267,2.9,6.4,51,0.0,,,0.0,0,0,n/a,2026-09-02T13:24:57Z
2026-09-03 01:29:57,16.7,6.5,1005.7,West,271,2.3,6.4,51,0.0,,,0.0,0,0,n/a,2026-09-02T13:29:57Z
2026-09-03 01:34:59,16.5,6.5,1005.7,West,271,1.6,5.6,51.6,0.0,,,0.0,0,0,n/a,2026-09-02T13:34:59Z
2026-09-03 01:39:54,16.4,6.5,1005.7,WNW,288,1,6.4,52,0.0,,,0.0,0,0,n/a,2026-09-02T13:39:54Z
2026-09-03 01:44:54,16.1,6.5,1005.6,NW,312,3.4,6.4,53.1,0.0,,,0.0,0,0,n/a,2026-09-02T13:44:54Z
2026-09-03 01:49:59,15.9,6.6,1005.6,NW,316,2.7,6.4,54,0.0,,,0.0,0,0,n/a,2026-09-02T13:49:59Z
2026-09-03 01:54:54,15.7,6.7,1005.7,NW,309,4.4,12.9,54.9,0.0,,,0.0,0,0,n/a,2026-09-02T13:54:54Z
2026-09-03 01:59:53,15.7,6.7,1005.7,WNW,290,6,13,55,0.0,,,0.0,0,0,n/a,2026-09-02T13:59:53Z
2026-09-03 02:04:57,15.7,6.7,1005.7,West,280,4.5,11.3,55,0.0,,,0.0,0,0,n/a,2026-09-02T14:04:57Z
2026-09-03 02:09:55,15.7,6.7,1005.7,West,279,3.7,11.3,55,0.0,,,0.0,0,0,n/a,2026-09-02T14:09:55Z
2026-09-03 02:14:55,15.8,6.6,1005.6,WNW,282,8.6,16.7,54.3,0.0,,,0.0,0,0,n/a,2026-09-02T14:14:55Z
2026-09-03 02:19:55,16.2,6.5,1005.5,West,278,9.7,19.3,52.7,0.0,,,0.0,0,0,n/a,2026-09-02T14:19:55Z
2026-09-03 02:24:56,16.8,6.7,1005.6,West,277,10.2,22.5,51.3,0.0,,,0.0,0,0,n/a,2026-09-02T14:24:56Z
2026-09-03 02:29:58,17.1,6.7,1005.5,West,279,7.9,18.5,50.4,0.0,,,0.0,0,0,n/a,2026-09-02T14:29:58Z
2026-09-03 02:34:56,17.2,6.7,1005.6,WNW,287,7.6,16.7,50,0.0,,,0.0,0,0,n/a,2026-09-02T14:34:56Z
2026-09-03 02:39:56,17.2,6.7,1005.6,West,279,7.7,16.7,50,0.0,,,0.0,0,0,n/a,2026-09-02T14:39:56Z
2026-09-03 02:44:56,17.1,6.7,1005.7,WNW,290,8.1,20.9,50.2,0.0,,,0.0,0,0,n/a,2026-09-02T14:44:56Z
2026-09-03 02:49:53,17,6.7,1005.6,West,277,7.7,19.3,51,0.0,,,0.0,0,0,n/a,2026-09-02T14:49:53Z
2026-09-03 02:54:57,17,6.8,1005.5,West,274,10.1,24.1,51,0.0,,,0.0,0,0,n/a,2026-09-02T14:54:57Z
2026-09-03 02:59:55,17.2,6.7,1005.4,West,281,9.5,24.1,50.2,0.0,,,0.0,0,0,n/a,2026-09-02T14:59:55Z
2026-09-03 03:04:56,17.3,6.8,1005.4,West,273,7.5,24.1,50,0.0,,,0.0,0,0,n/a,2026-09-02T15:04:56Z
2026-09-03 03:09:57,17.3,6.8,1005.4,West,276,10.1,20.9,50,0.0,,,0.0,0,0,n/a,2026-09-02T15:09:57Z
2026-09-03 03:14:58,17.3,6.8,1005.4,West,281,7.1,16.7,50.3,0.0,,,0.0,0,0,n/a,2026-09-02T15:14:58Z
2026-09-03 03:19:54,17.2,6.9,1005.4,WNW,282,8.6,16.7,51,0.0,,,0.0,0,0,n/a,2026-09-02T15:19:54Z
2026-09-03 03:24:54,17,6.8,1005.4,West,278,6.6,16.7,51,0.0,,,0.0,0,0,n/a,2026-09-02T15:24:54Z
2026-09-03 03:29:54,16.9,7,1005.4,West,280,4.6,9.7,52,0.0,,,0.0,0,0,n/a,2026-09-02T15:29:54Z
2026-09-03 03:34:54,16.8,6.9,1005.4,West,272,3.7,9.7,52,0.0,,,0.0,0,0,n/a,2026-09-02T15:34:54Z
2026-09-03 03:39:55,16.6,6.9,1005.4,West,275,3.3,11.3,52.5,0.0,,,0.0,0,0,n/a,2026-09-02T15:39:55Z
2026-09-03 03:44:55,16.5,6.9,1005.4,West,279,3.8,9.7,53,0.0,,,0.0,0,0,n/a,2026-09-02T15:44:55Z
2026-09-03 03:49:54,16.4,6.8,1005.4,West,277,3.2,9.7,53,0.0,,,0.0,0,0,n/a,2026-09-02T15:49:54Z
2026-09-03 03:54:58,16.3,6.7,1005.4,West,278,2.9,6.4,53,0.0,,,0.0,0,0,n/a,2026-09-02T15:54:58Z
2026-09-03 03:59:57,16.2,6.7,1005.4,WNW,282,1.6,5.6,53.6,0.0,,,0.0,0,0,n/a,2026-09-02T15:59:57Z
2026-09-03 04:04:57,15.9,6.6,1005.5,WNW,282,1.2,3.7,54,0.0,,,0.0,0,0,n/a,2026-09-02T16:04:57Z
2026-09-03 04:09:59,15.6,6.6,1005.5,WNW,282,1.5,5.6,55,0.0,,,0.0,0,0,n/a,2026-09-02T16:09:59Z
2026-09-03 04:14:59,15.4,6.7,1005.4,WNW,283,1.5,5.6,56,0.0,,,0.0,0,0,n/a,2026-09-02T16:14:59Z
2026-09-03 04:19:55,15.1,6.6,1005.5,WNW,284,1.2,5.6,56.6,0.0,,,0.0,0,0,n/a,2026-09-02T16:19:55Z
2026-09-03 04:24:53,14.9,6.6,1005.5,WNW,286,0.2,3.7,57.4,0.0,,,0.0,0,0,n/a,2026-09-02T16:24:53Z
2026-09-03 04:29:59,14.6,6.5,1005.5,WNW,286,0.3,3.7,58,0.0,,,0.0,0,0,n/a,2026-09-02T16:29:59Z
2026-09-03 04:34:59,14.4,6.6,1005.5,WNW,287,0.7,3.7,59.4,0.0,,,0.0,0,0,n/a,2026-09-02T16:34:59Z
2026-09-03 04:39:55,14.2,6.5,1005.7,West,261,1,5.6,60,0.0,,,0.0,0,0,n/a,2026-09-02T16:39:55Z
2026-09-03 04:44:56,14.1,6.6,1005.7,WNW,285,0.6,5.6,60.8,0.0,,,0.0,0,0,n/a,2026-09-02T16:44:56Z
2026-09-03 04:49:57,14,6.6,1005.8,WNW,291,1.6,6.4,61,0.0,,,0.0,0,0,n/a,2026-09-02T16:49:57Z
2026-09-03 04:54:57,14.1,6.7,1005.9,NW,325,1.4,3.7,61,0.0,,,0.0,0,0,n/a,2026-09-02T16:54:57Z
2026-09-03 04:59:56,14,6.6,1006.0,NNW,335,1.5,3.7,61,0.0,,,0.0,0,0,n/a,2026-09-02T16:59:56Z
2026-09-03 05:04:55,14,6.7,1006.1,NNW,336,0.9,3.7,61.4,0.0,,,0.0,0,0,n/a,2026-09-02T17:04:55Z
2026-09-03 05:09:56,13.9,6.6,1006.1,North,349,0.8,5.6,61.7,0.0,,,0.0,0,0,n/a,2026-09-02T17:09:56Z
2026-09-03 05:14:56,13.7,6.6,1006.2,North,355,0.2,1.9,62.5,0.0,,,0.0,0,0,n/a,2026-09-02T17:14:56Z
2026-09-03 05:19:56,13.3,6.6,1006.2,North,355,0,1.9,64,0.0,,,0.0,0,0,n/a,2026-09-02T17:19:56Z
2026-09-03 05:24:55,12.7,6.4,1006.2,North,355,0.7,5.6,65.3,0.0,,,0.0,0,0,n/a,2026-09-02T17:24:55Z
2026-09-03 05:29:55,12,6.2,1006.0,North,355,0.8,5.6,67.6,0.0,,,0.0,0,0,n/a,2026-09-02T17:29:55Z
2026-09-03 05:34:55,11.5,6.1,1006.0,North,355,1.6,3.7,69.8,0.0,,,0.0,0,0,n/a,2026-09-02T17:34:55Z
2026-09-03 05:39:57,11,6,1006.1,North,355,0.9,3.7,71.6,0.0,,,0.0,0,0,n/a,2026-09-02T17:39:57Z
2026-09-03 05:44:57,10.6,5.9,1006.1,North,355,0,1.9,72.7,0.0,,,0.0,0,0,n/a,2026-09-02T17:44:57Z
2026-09-03 05:49:57,10.3,5.8,1006.2,North,355,0,0,73.7,0.0,,,0.0,0,0,n/a,2026-09-02T17:49:57Z
2026-09-03 05:54:59,10.1,5.7,1006.2,North,355,0,0,74,0.0,,,0.0,0,0,n/a,2026-09-02T17:54:59Z
2026-09-03 05:59:59,10,5.6,1006.2,North,355,0,0,74.5,0.0,,,0.0,0,0,n/a,2026-09-02T17:59:59Z
2026-09-03 06:04:59,9.7,5.6,1006.2,North,355,0,0,75.3,0.0,,,0.0,0,0,n/a,2026-09-02T18:04:59Z
2026-09-03 06:09:59,9.6,5.6,1006.3,North,355,0,0,76.2,0.0,,,0.0,0,0,n/a,2026-09-02T18:09:59Z
2026-09-03 06:14:58,9.5,5.6,1006.4,North,355,0.1,3.2,77,0.0,,,0.0,0,0,n/a,2026-09-02T18:14:58Z
2026-09-03 06:19:54,9.4,5.6,1006.5,NNE,33,2.6,5.6,77.2,0.0,,,0.0,0,0,n/a,2026-09-02T18:19:54Z
2026-09-03 06:24:58,9.3,5.6,1006.6,ESE,113,1.5,5.6,78,0.0,,,0.0,0,0,n/a,2026-09-02T18:24:58Z
2026-09-03 06:29:57,9.2,5.5,1006.7,ESE,114,1.8,3.7,78,0.0,,,0.0,0,0,n/a,2026-09-02T18:29:57Z
2026-09-03 06:34:58,9,5.5,1006.6,East,79,1.2,5.6,78.2,0.0,,,0.0,0,0,n/a,2026-09-02T18:34:58Z
2026-09-03 06:39:54,8.9,5.5,1006.7,NE,37,1,3.7,79,0.0,,,0.0,0,0,n/a,2026-09-02T18:39:54Z
2026-09-03 06:44:54,9,5.7,1006.7,NE,37,0.8,3.7,79.7,0.0,,,0.0,0,0,n/a,2026-09-02T18:44:54Z
2026-09-03 06:49:59,9.1,5.8,1006.6,NE,37,0,1.9,80,0.0,,,0.0,0,0,n/a,2026-09-02T18:49:59Z
2026-09-03 06:54:57,9.1,5.7,1006.6,NE,37,0.2,1.9,79.3,0.0,,,0.0,5,0,n/a,2026-09-02T18:54:57Z
2026-09-03 06:59:57,8.9,5.5,1006.6,NE,37,0.1,1.9,79,0.0,,,0.0,9,0,n/a,2026-09-02T18:59:57Z
2026-09-03 07:04:55,8.8,5.5,1006.6,NE,37,0,1.9,79.7,0.0,,,0.0,11,0,n/a,2026-09-02T19:04:55Z
2026-09-03 07:09:57,8.8,5.5,1006.6,NE,37,0.2,1.9,80.1,0.0,,,0.0,14,0,n/a,2026-09-02T19:09:57Z
2026-09-03 07:14:56,8.8,5.7,1006.6,NE,37,0.1,1.9,81,0.0,,,0.0,32,0,n/a,2026-09-02T19:14:56Z
2026-09-03 07:19:55,8.9,6,1006.6,NE,37,0,0,81.8,0.0,,,0.0,42,0,n/a,2026-09-02T19:19:55Z
2026-09-03 07:24:56,9.3,6.6,1006.6,NE,37,0,0,82.7,0.0,,,0.0,53,0,n/a,2026-09-02T19:24:56Z
2026-09-03 07:29:55,9.8,7,1006.8,NE,39,2,4.8,82.5,0.0,,,0.0,67,0,n/a,2026-09-02T19:29:55Z
2026-09-03 07:34:59,10.1,7,1006.9,ENE,63,3,5.6,81,0.0,,,0.0,74,0,n/a,2026-09-02T19:34:59Z
2026-09-03 07:39:54,10.3,7.2,1007.0,ENE,67,1.8,3.7,81,0.0,,,0.0,86,0,n/a,2026-09-02T19:39:54Z
2026-09-03 07:44:59,10.7,7.4,1007.1,East,99,3.2,8,80.2,0.0,,,0.0,107,0,n/a,2026-09-02T19:44:59Z
2026-09-03 07:49:59,11.5,7.9,1007.0,East,94,0.5,5.6,79,0.0,,,0.0,146,0,n/a,2026-09-02T19:49:59Z
2026-09-03 07:54:59,11.8,8,1007.0,NE,54,1.8,4.8,78,0.0,,,0.0,163,0,n/a,2026-09-02T19:54:59Z
2026-09-03 07:59:58,12.1,8.2,1007.1,NNE,19,0.8,5.6,77.1,0.0,,,0.0,163,0,n/a,2026-09-02T19:59:58Z
2026-09-03 08:04:58,12.6,8.6,1007.2,NNE,19,0.5,5.6,77,0.0,,,0.0,204,0,n/a,2026-09-02T20:04:58Z
2026-09-03 08:09:55,13.1,9.1,1007.1,NNE,19,0.4,3.7,76.7,0.0,,,0.0,243,0,n/a,2026-09-02T20:09:55Z
2026-09-03 08:14:55,13.7,9.3,1007.2,NNE,19,0.8,3.7,74.9,0.0,,,0.0,260,0,n/a,2026-09-02T20:14:55Z
2026-09-03 08:19:59,14.3,9.4,1007.1,NNE,23,0.9,3.7,72.6,0.0,,,0.0,294,0,n/a,2026-09-02T20:19:59Z
2026-09-03 08:24:58,14.7,9.5,1007.1,NNE,24,1,3.7,71.1,0.0,,,0.0,315,0.5,n/a,2026-09-02T20:24:58Z
2026-09-03 08:29:57,15.2,9.5,1007.1,NNE,24,1.8,5.6,69,0.0,,,0.0,274,0.5,n/a,2026-09-02T20:29:57Z
2026-09-03 08:34:55,15.5,9.2,1007.1,NE,51,2.5,6.4,65.9,0.0,,,0.0,343,0.6,n/a,2026-09-02T20:34:55Z
2026-09-03 08:39:57,15.8,9.3,1007.1,ENE,61,1.1,3.7,65.3,0.0,,,0.0,336,0.6,n/a,2026-09-02T20:39:57Z
2026-09-03 08:44:57,16,9.2,1007.1,North,358,2.6,11.3,63.8,0.0,,,0.0,308,0.6,n/a,2026-09-02T20:44:57Z
2026-09-03 08:49:55,16.2,9.1,1007.1,NW,323,5.3,11.1,63,0.0,,,0.0,313,0.7,n/a,2026-09-02T20:49:55Z
2026-09-03 08:54:55,16.2,9.4,1007.1,NW,325,3,6.4,64.2,0.0,,,0.0,341,0.7,n/a,2026-09-02T20:54:55Z
2026-09-03 08:59:55,16.4,9.5,1007.0,NW,325,2.8,6.4,63.7,0.0,,,0.0,348,0.7,n/a,2026-09-02T20:59:55Z
2026-09-03 09:04:59,16.6,9.4,1007.0,NW,325,1.2,5.6,62.4,0.0,,,0.0,223,0.7,n/a,2026-09-02T21:04:59Z
2026-09-03 09:09:54,16.9,9.5,1007.0,NW,325,0.2,4.8,61.6,0.0,,,0.0,294,0.8,n/a,2026-09-02T21:09:54Z
2026-09-03 09:14:54,17.1,9.6,1007.0,NW,325,1.7,5.6,61.3,0.0,,,0.0,316,0.9,n/a,2026-09-02T21:14:54Z
2026-09-03 09:19:54,17.3,9.6,1007.0,NW,325,2.3,5.6,60.3,0.0,,,0.0,427,1.1,n/a,2026-09-02T21:19:54Z
2026-09-03 09:24:58,17.6,9.8,1007.0,NW,325,1.8,5.6,60.2,0.0,,,0.0,427,1.2,n/a,2026-09-02T21:24:58Z
2026-09-03 09:29:58,17.9,9.9,1007.0,NW,324,4.2,8,59.4,0.0,,,0.0,438,1.2,n/a,2026-09-02T21:29:58Z
2026-09-03 09:34:57,18.2,10,1007.0,NW,324,3.5,6.4,58.6,0.0,,,0.0,448,1.3,n/a,2026-09-02T21:34:57Z
2026-09-03 09:39:54,18.6,10.1,1007.0,NW,323,4.5,8,57.8,0.0,,,0.0,452,1.3,n/a,2026-09-02T21:39:54Z
2026-09-03 09:44:53,18.8,10,1007.0,NW,322,5.8,9.7,56.6,0.0,,,0.0,455,1.4,n/a,2026-09-02T21:44:53Z
2026-09-03 09:49:58,19,10.2,1006.9,NW,321,3.8,9.3,56.6,0.0,,,0.0,462,1.4,n/a,2026-09-02T21:49:58Z
2026-09-03 09:54:57,19.2,10.2,1006.9,NW,326,4.5,11.3,56.2,0.0,,,0.0,469,1.5,n/a,2026-09-02T21:54:57Z
2026-09-03 09:59:58,19.3,10.2,1006.9,NNW,329,4.5,11.1,55.5,0.0,,,0.0,476,1.6,n/a,2026-09-02T21:59:58Z
2026-09-03 10:04:59,19.4,10.1,1006.9,NW,323,4.2,8,54.7,0.0,,,0.0,485,1.6,n/a,2026-09-02T22:04:59Z
2026-09-03 10:09:56,19.5,10,1006.9,NW,307,4.1,9.7,54.2,0.0,,,0.0,496,1.7,n/a,2026-09-02T22:09:56Z
2026-09-03 10:14:59,19.7,10.2,1006.9,NW,310,3.5,9.7,54.2,0.0,,,0.0,506,1.8,n/a,2026-09-02T22:14:59Z
2026-09-03 10:19:58,19.8,10.3,1006.8,NNW,340,3.8,9.3,54,0.0,,,0.0,515,1.9,n/a,2026-09-02T22:19:58Z
2026-09-03 10:24:54,20,9.9,1006.8,NW,306,6.2,12.9,52.3,0.0,,,0.0,524,1.9,n/a,2026-09-02T22:24:54Z
2026-09-03 10:29:59,20.1,10.1,1006.8,NW,312,7.2,13,52.4,0.0,,,0.0,534,2,n/a,2026-09-02T22:29:59Z
2026-09-03 10:34:54,20.3,10.3,1006.8,NW,322,5.4,13,52.8,0.0,,,0.0,541,2.1,n/a,2026-09-02T22:34:54Z
2026-09-03 10:39:55,20.4,10.2,1006.8,NW,315,5.7,14.8,52.1,0.0,,,0.0,550,2.1,n/a,2026-09-02T22:39:55Z
2026-09-03 10:44:54,20.5,10.2,1006.7,WNW,288,5.5,13,51.8,0.0,,,0.0,557,2.2,n/a,2026-09-02T22:44:54Z
2026-09-03 10:49:54,20.6,10.4,1006.6,NNW,328,4.2,12.9,52.2,0.0,,,0.0,564,2.3,n/a,2026-09-02T22:49:54Z
2026-09-03 10:54:59,20.7,10.7,1006.6,NW,325,4.3,13,52.7,0.0,,,0.0,573,2.3,n/a,2026-09-02T22:54:59Z
2026-09-03 10:59:53,20.9,10.7,1006.5,NW,313,5,11.3,52,0.0,,,0.0,577,2.3,n/a,2026-09-02T22:59:53Z
2026-09-03 11:04:59,20.9,10.6,1006.5,WNW,298,6.5,13,51.7,0.0,,,0.0,584,2.4,n/a,2026-09-02T23:04:59Z
2026-09-03 11:09:57,21,10.2,1006.4,NW,315,5.9,13,50.1,0.0,,,0.0,589,2.4,n/a,2026-09-02T23:09:57Z
2026-09-03 11:14:57,21.1,10.1,1006.4,NW,320,5.4,13,49.6,0.0,,,0.0,592,2.5,n/a,2026-09-02T23:14:57Z
2026-09-03 11:19:55,21.2,10.1,1006.4,NW,307,4.1,9.3,49.2,0.0,,,0.0,598,2.6,n/a,2026-09-02T23:19:55Z
2026-09-03 11:24:59,21.4,10.4,1006.4,WNW,298,6.4,14.8,49.5,0.0,,,0.0,605,2.6,n/a,2026-09-02T23:24:59Z
2026-09-03 11:29:55,21.5,10.4,1006.3,WNW,298,4.6,11.3,49.2,0.0,,,0.0,610,2.7,n/a,2026-09-02T23:29:55Z
2026-09-03 11:34:55,21.7,10.7,1006.3,West,276,4.9,11.3,49.7,0.0,,,0.0,613,2.7,n/a,2026-09-02T23:34:55Z
2026-09-03 11:39:56,21.8,10.4,1006.2,WNW,298,3.2,11.3,48.3,0.0,,,0.0,617,2.8,n/a,2026-09-02T23:39:56Z
2026-09-03 11:44:55,22,11,1006.2,SW,225,3,8,50,0.0,,,0.0,621,2.8,n/a,2026-09-02T23:44:55Z
2026-09-03 11:49:54,22.1,10.9,1006.2,NNE,20,4.2,8,48.8,0.0,,,0.0,624,2.8,n/a,2026-09-02T23:49:54Z
2026-09-03 11:54:59,21.9,10.5,1006.2,NE,37,4.7,14.8,48.5,0.0,,,0.0,626,2.9,n/a,2026-09-02T23:54:59Z
2026-09-03 11:59:57,21.6,10.2,1006.1,ENE,65,6.4,13,48.3,0.0,,,0.0,629,2.9,n/a,2026-09-02T23:59:57Z
2026-09-03 12:04:57,21.6,10.7,1006.1,North,8,4.1,8,49.8,0.0,,,0.0,631,2.9,n/a,2026-09-03T00:04:57Z
2026-09-03 12:09:54,21.7,10.4,1006.1,NE,48,4.8,9.7,48.6,0.0,,,0.0,633,2.9,n/a,2026-09-03T00:09:54Z
2026-09-03 12:14:54,21.7,10.2,1006.0,NE,56,4.4,9.3,48.2,0.0,,,0.0,636,2.9,n/a,2026-09-03T00:14:54Z
2026-09-03 12:19:59,21.7,10.3,1005.9,ENE,60,5,13,48.3,0.0,,,0.0,636,2.9,n/a,2026-09-03T00:19:59Z
2026-09-03 12:24:54,21.9,9.5,1005.9,WNW,299,7.2,14.8,45.4,0.0,,,0.0,638,2.9,n/a,2026-09-03T00:24:54Z
2026-09-03 12:29:59,22.3,9.8,1005.8,West,276,5.3,14.8,45.2,0.0,,,0.0,640,3,n/a,2026-09-03T00:29:59Z
2026-09-03 12:34:58,22.6,9.2,1005.8,WNW,288,7.9,20.9,42.3,0.0,,,0.0,638,2.9,n/a,2026-09-03T00:34:58Z
2026-09-03 12:39:55,22.7,9.4,1005.7,WNW,294,7,14.8,42.7,0.0,,,0.0,638,2.9,n/a,2026-09-03T00:39:55Z
2026-09-03 12:44:54,22.7,9.2,1005.5,WNW,295,6.4,14.8,42.3,0.0,,,0.0,636,2.9,n/a,2026-09-03T00:44:54Z
2026-09-03 12:49:54,22.7,9.5,1005.4,WNW,286,5.4,13,43,0.0,,,0.0,636,2.9,n/a,2026-09-03T00:49:54Z
2026-09-03 12:54:59,22.9,9.4,1005.4,West,271,3.3,6.4,42.4,0.0,,,0.0,635,2.9,n/a,2026-09-03T00:54:59Z
2026-09-03 12:59:59,23.1,9.4,1005.2,West,276,3.3,9.7,41.9,0.0,,,0.0,631,2.9,n/a,2026-09-03T00:59:59Z
2026-09-03 13:04:59,23.3,9.7,1005.1,WNW,288,4.1,11.3,42.2,0.0,,,0.0,629,2.8,n/a,2026-09-03T01:04:59Z
2026-09-03 13:09:55,23.4,9.8,1005.2,WNW,285,6.2,11.3,42.2,0.0,,,0.0,626,2.8,n/a,2026-09-03T01:09:55Z
2026-09-03 13:14:55,23.2,9.3,1005.1,WNW,290,2.4,6.4,41.1,0.0,,,0.0,624,2.8,n/a,2026-09-03T01:14:55Z
2026-09-03 13:19:54,23.2,9.6,1004.9,West,273,5.4,16.7,42,0.0,,,0.0,621,2.8,n/a,2026-09-03T01:19:54Z
2026-09-03 13:24:59,23.3,9.6,1004.9,West,277,4.4,13,41.9,0.0,,,0.0,619,2.7,n/a,2026-09-03T01:24:59Z
2026-09-03 13:29:58,23.4,9.6,1004.8,WNW,301,5.6,14.8,41.7,0.0,,,0.0,615,2.7,n/a,2026-09-03T01:29:58Z
2026-09-03 13:34:57,23.3,9.8,1004.6,West,280,5.5,14.8,42.4,0.0,,,0.0,610,2.7,n/a,2026-09-03T01:34:57Z
2026-09-03 13:39:58,23.4,9.7,1004.5,West,278,6,14.8,42,0.0,,,0.0,605,2.6,n/a,2026-09-03T01:39:58Z
2026-09-03 13:44:59,23.4,9.5,1004.5,West,280,8,16.7,41.4,0.0,,,0.0,599,2.6,n/a,2026-09-03T01:44:59Z
2026-09-03 13:49:55,23.3,9.6,1004.4,West,270,4.7,13,41.9,0.0,,,0.0,594,2.5,n/a,2026-09-03T01:49:55Z
2026-09-03 13:54:54,23.4,9.6,1004.3,WNW,285,4.7,11.3,41.5,0.0,,,0.0,587,2.5,n/a,2026-09-03T01:54:54Z
2026-09-03 13:59:59,23.5,9.4,1004.3,NW,304,5.6,13,40.8,0.0,,,0.0,582,2.4,n/a,2026-09-03T01:59:59Z
2026-09-03 14:04:54,23.4,9.4,1004.2,NW,309,4.9,12.9,40.8,0.0,,,0.0,575,2.3,n/a,2026-09-03T02:04:54Z
2026-09-03 14:09:56,23.4,9,1004.2,West,279,7.3,14.8,40,0.0,,,0.0,570,2.3,n/a,2026-09-03T02:09:56Z
2026-09-03 14:14:56,23.4,9.2,1004.2,NW,304,6.5,14.8,40.6,0.0,,,0.0,561,2.2,n/a,2026-09-03T02:14:56Z
2026-09-03 14:19:54,23.5,9.6,1004.1,WNW,290,6.9,14.5,41.2,0.0,,,0.0,552,2.2,n/a,2026-09-03T02:19:54Z
2026-09-03 14:24:59,23.5,9.2,1004.0,WNW,287,7.7,14.8,40.4,0.0,,,0.0,545,2.1,n/a,2026-09-03T02:24:59Z
2026-09-03 14:29:56,23.4,9.1,1004.1,WNW,288,9.7,20.9,40.2,0.0,,,0.0,534,2,n/a,2026-09-03T02:29:56Z
2026-09-03 14:34:55,23.2,8.7,1004.1,WNW,285,9.4,20.4,39.4,0.0,,,0.0,527,2,n/a,2026-09-03T02:34:55Z
2026-09-03 14:39:57,23.1,9.1,1004.1,WNW,289,7.2,16.7,40.8,0.0,,,0.0,522,1.9,n/a,2026-09-03T02:39:57Z
2026-09-03 14:44:57,23.2,9.4,1004.2,WNW,286,6.3,19.3,41.5,0.0,,,0.0,510,1.8,n/a,2026-09-03T02:44:57Z
2026-09-03 14:49:55,23.2,9.1,1004.1,WNW,283,10.6,18.5,40.7,0.0,,,0.0,504,1.8,n/a,2026-09-03T02:49:55Z
2026-09-03 14:54:55,23,9.2,1004.1,WNW,286,10.2,18.5,41.3,0.0,,,0.0,504,1.7,n/a,2026-09-03T02:54:55Z
2026-09-03 14:59:54,22.8,9.3,1004.0,WNW,285,7.5,18.5,42.2,0.0,,,0.0,504,1.4,n/a,2026-09-03T02:59:54Z
2026-09-03 15:04:59,22.4,9.2,1004.0,WNW,284,6.3,18.5,43,0.0,,,0.0,475,1.5,n/a,2026-09-03T03:04:59Z
2026-09-03 15:09:58,22.3,9.6,1004.0,West,280,6.3,14.8,44.4,0.0,,,0.0,478,1.4,n/a,2026-09-03T03:09:58Z
2026-09-03 15:14:57,22.6,9.4,1003.9,West,273,7.3,14.8,43.2,0.0,,,0.0,461,1.4,n/a,2026-09-03T03:14:57Z
2026-09-03 15:19:56,22.8,9.5,1003.9,West,278,8.8,14.8,42.8,0.0,,,0.0,436,1.3,n/a,2026-09-03T03:19:56Z
2026-09-03 15:24:56,22.8,9.2,1003.9,West,279,10.6,19.3,41.9,0.0,,,0.0,422,1.3,n/a,2026-09-03T03:24:56Z
2026-09-03 15:29:55,22.6,9.4,1003.9,WNW,283,7.8,19.3,43,0.0,,,0.0,408,1.2,n/a,2026-09-03T03:29:55Z
2026-09-03 15:34:55,22.5,9.5,1003.9,WNW,295,7.6,20.9,43.5,0.0,,,0.0,396,1.1,n/a,2026-09-03T03:34:55Z
2026-09-03 15:39:56,22.4,9.5,1003.8,WNW,289,9,18.5,43.8,0.0,,,0.0,385,1.1,n/a,2026-09-03T03:39:56Z
2026-09-03 15:44:55,22.5,9.6,1003.8,WNW,289,5.4,11.3,43.9,0.0,,,0.0,376,1,n/a,2026-09-03T03:44:55Z
2026-09-03 15:49:59,22.6,9.4,1003.7,WNW,290,7,14.8,42.9,0.0,,,0.0,364,0.9,n/a,2026-09-03T03:49:59Z
2026-09-03 15:54:59,22.7,9.1,1003.7,West,278,6.8,14.8,42,0.0,,,0.0,350,0.8,n/a,2026-09-03T03:54:59Z
2026-09-03 15:59:59,22.7,9.2,1003.6,West,279,6.3,14.8,42.2,0.0,,,0.0,334,0.7,n/a,2026-09-03T03:59:59Z
2026-09-03 16:04:55,22.7,9.2,1003.4,WNW,300,5.6,13,42.2,0.0,,,0.0,323,0.7,n/a,2026-09-03T04:04:55Z
2026-09-03 16:09:55,22.6,9.3,1003.4,WNW,293,7.3,13,42.8,0.0,,,0.0,306,0.6,n/a,2026-09-03T04:09:55Z
2026-09-03 16:14:56,22.5,9.3,1003.4,WNW,294,5.4,13,43.1,0.0,,,0.0,290,0.6,n/a,2026-09-03T04:14:56Z
2026-09-03 16:19:55,22.4,9.1,1003.4,West,280,6.2,16.7,42.5,0.0,,,0.0,285,0.5,n/a,2026-09-03T04:19:55Z
2026-09-03 16:24:55,22.4,9.1,1003.3,WNW,301,6,14.8,42.8,0.0,,,0.0,271,0.5,n/a,2026-09-03T04:24:55Z
2026-09-03 16:29:59,22.2,9.2,1003.2,WNW,297,4.8,11.3,43.4,0.0,,,0.0,257,0.5,n/a,2026-09-03T04:29:59Z
2026-09-03 16:34:59,22.2,9.2,1003.2,WNW,292,4.6,11.3,43.4,0.0,,,0.0,223,0,n/a,2026-09-03T04:34:59Z
2026-09-03 16:39:54,22.2,9.2,1003.2,WNW,291,6.2,14.8,43.5,0.0,,,0.0,207,0,n/a,2026-09-03T04:39:54Z
2026-09-03 16:44:59,22.1,9.1,1003.2,WNW,285,3.2,9.7,43.5,0.0,,,0.0,193,0,n/a,2026-09-03T04:44:59Z
2026-09-03 16:49:59,22.2,9.5,1003.1,WNW,294,3.2,9.7,44.4,0.0,,,0.0,174,0,n/a,2026-09-03T04:49:59Z
2026-09-03 16:54:53,22.1,9.2,1003.1,WNW,294,6.2,14.8,43.8,0.0,,,0.0,153,0,n/a,2026-09-03T04:54:53Z